AirNav   Pilot Hours Calculator
 
 898 users online  

05M Mountain Point Medical Center Helipad Heliport
Lehi, Utah, USA

GOING TO LEHI?


FAA INFORMATION EFFECTIVE 08 OCTOBER 2020

Location

FAA Identifier: 05M
Lat/Long: 40-25-29.0000N 111-52-49.0000W
40-25.483333N 111-52.816667W
40.4247222,-111.8802778
(estimated)
Elevation: 4348 ft. / 1325 m (estimated)
From city: 1 mile NW of LEHI, UT
Time zone: UTC -6 (UTC -7 during Standard Time)
Zip code: 84043

Heliport Operations

Heliport use: Private use. Permission required prior to landing
Activation date: 12/2016
Control tower: no
ARTCC: SALT LAKE CITY CENTER
FSS: CEDAR CITY FLIGHT SERVICE STATION
Attendance: 
Segmented circle: no

Heliport Communications

WX AWOS-3 at U42 (13 nm NW): 134.425 (801-562-0271)
WX AWOS-3PT at PVU (14 nm SE): 135.175 (801-373-9782)
WX AWOS-2 at SPK (19 nm SE): 119.275 (801-804-5801)

Nearby radio navigation aids

VOR radial/distance  VOR name  Freq  Var
FFUr001/9.4FAIRFIELD VORTAC116.6016E
PVUr315/14.5PROVO VOR/DME108.4015E
TCHr154/25.9WASATCH VORTAC116.8016E

Heliport Services

Runway Information

Helipad H1

Dimensions: 40 x 40 ft. / 12 x 12 m
Surface: concrete
Traffic pattern: leftleft

Heliport Ownership and Management from official FAA records

Ownership: Privately-owned

Additional Remarks

FOR CD CTC SALT LAKE ARTCC AT 801-320-2568.

Instrument Procedures

There are no published instrument procedures at 05M.

Some nearby airports with instrument procedures:

U42 - South Valley Regional Airport (13 nm NW)
KPVU - Provo Municipal Airport (14 nm SE)
KSPK - Spanish Fork Airport Springville-Woodhouse Field (19 nm SE)
KHCR - Heber Valley Airport (21 nm E)
KSLC - Salt Lake City International Airport (22 nm N)
 
Loc | Ops | Rwys | IFR | FBO | Links
Com | Nav | Svcs | Stats | Notes
Aerial photo
No photo
 
Airport distance calculator
Flying to Mountain Point Medical Center Helipad Heliport? Find the distance to fly.

From to 05M

Sunrise and sunset
Times for 25-Oct-2020
 Local
(UTC-6)
 Zulu
(UTC)
Morning civil twilight07:2413:24
Sunrise07:5213:52
Sunset18:3100:31
Evening civil twilight18:5900:59

Current date and time
Zulu (UTC)  26-Oct-2020 02:26:24
Local (UTC-6)  25-Oct-2020 20:26:24
 
METAR
KU42 
13nm NW 
260215Z AUTO 02012G18KT 10SM BKN050 M05/M12 A3011 RMK AO1 T10471118
KPVU 
15nm SE 
260156Z 34008KT 10SM SCT060 BKN070 M02/M11 A3006 RMK AO2 SLP196 T10221111
KHCR 
21nm E 
260215Z AUTO 04012G17KT 10SM SCT065 M08/M15 A3007 RMK AO2
KSLC 
22nm N 
260154Z 11009KT 10SM FEW040 SCT055 SCT080 M02/M13 A3011 RMK AO2 SLP212 T10221128 VISNO NW RNWY $
KTVY 
24nm NW 
260215Z AUTO 02009KT 10SM BKN065 BKN085 M02/M06 A3012 RMK AO2
TAF
KPVU 
15nm SE 
251736Z 2518/2618 32016G26KT P6SM VCSH SCT025 OVC050 TEMPO 2518/2519 5SM -SN BKN010 FM252200 32012G20KT P6SM SCT090 FM260900 33011KT P6SM SKC
NOTAMs
Click for the latest NOTAMs
NOTAMs are issued by the DoD/FAA and will open in a separate window not controlled by AirNav.

 

 
 

Would you like to see your business listed on this page?

 If your business provides an interesting product or service to pilots, flight crews, aircraft, or users of the Mountain Point Medical Center Helipad Heliport, you should consider listing it here.  To start the listing process, click on the button below
 
Add a business
 

Other Pages about Mountain Point Medical Center Helipad Heliport

Update a link
 
Copyright © AirNav, LLC. All rights reserved. Privacy Policy  Contact